Regional Weather Roundup
Issued by NWS Midland/Odessa, TX

Home | Current Version | Previous Version | Text Only | Print | Product List | Glossary On
Versions: 1 2 3 4 5 6 7 8 9 10 11 12 13 14 15 16 17 18 19 20 21 22 23 24 25 26 27 28 29 30 31 32 33 34 35 36 37 38 39 40 41 42 43 44 45 46 47 48 49 50
000
ASUS44 KMAF 251010
RWRMAF
MIDLAND AREA WEATHER ROUNDUP
NATIONAL WEATHER SERVICE MIDLAND TX
500 AM CDT MON JUL 25 2016

...IN SOUTHWEST TEXAS AND SOUTHEAST NEW MEXICO...

CITY           SKY/WX    TMP DP  RH WIND       PRES   REMARKS
ALPINE         CLEAR     74  58  56 E5        30.17S
ANDREWS        FAIR      76  58  53 CALM      30.05S
ARTESIA        CLEAR     75  55  50 N10       30.09S
BIG SPRING     CLEAR     80  62  54 SE7       30.03F
CARLSBAD       CLEAR     78  54  43 N7        30.05R
DRYDEN           N/A     82  70  66 E8        29.97R
FORT STOCKTON  CLEAR     79  62  56 SE9       30.02S
GUAD PASS      CLEAR     74  53  48 E14       30.21S
HOBBS          CLEAR     73  55  53 CALM      30.10S
MARFA          PTCLDY    68  56  65 NE6       30.16S
MIDLAND AIRPK  CLEAR     82  59  45 S7        30.03S
MIDLAND INTL   CLEAR     80  59  48 SE7       30.03S
ODESSA         CLEAR     82  59  45 S7        30.04S
PECOS          CLEAR     78  58  50 E6        29.99S
PRESIDIO       FAIR      85  60  41 NE8G18    29.97R
SEMINOLE       CLEAR     74  58  55 CALM      30.08S
SNYDER           N/A     78  63  60 SE6       30.02S
WINK           CLEAR     82  60  47 SE10      30.00S
$$
...OTHER STATIONS IN TEXAS...

CITY           SKY/WX    TMP DP  RH WIND       PRES   REMARKS
ABILENE        CLEAR     79  65  62 S6        29.99S
AMARILLO       CLEAR     71  63  75 E10       30.12F
AUSTIN         CLOUDY    77  74  90 CALM      29.94S
BROWNSVILLE    CLEAR     81  76  84 SE6       29.90R
CORPUS CHRISTI PTCLDY    78  75  90 SE3       29.90S
DALLAS FTW     PTCLDY    82  72  71 SE3       29.94R
DEL RIO        CLEAR     83  71  67 E8        29.92S
EL PASO        MOCLDY    85  52  32 N9        30.05R
HOUSTON INT    MOCLDY    81  76  84 CALM      29.93S
LUBBOCK        CLEAR     75  60  59 SE5       30.07S
SAN ANGELO     CLEAR     76  64  66 W3        29.98S
SAN ANTONIO    PTCLDY    78  73  84 S8        29.95S
WACO           CLEAR     81  73  76 S8        29.94R
WICHITA FALLS  NOT AVBL
$$
...OTHER LOCATIONS IN NEW MEXICO...

CITY           SKY/WX    TMP DP  RH WIND       PRES   REMARKS
ALAMAGORDO     CLEAR     75  50  41 N3        30.11R
ALBUQUERQUE    CLOUDY    72  55  55 NW5       30.23R
CANNON AFB     CLEAR     69  59  69 NE9       30.15S
CLOVIS         CLEAR     68  55  64 NE8       30.15S
HOLLOMAN AFB   CLEAR     76  52  42 NW3       30.08R
ROSWELL        CLEAR     76  54  46 N12       30.09F
RUIDOSO          N/A     61  48  63 SW8       30.36S
SANTA FE       CLOUDY    70  50  49 E6        30.30S
TRUTH OR CONSE MOCLDY    77  52  41 NE8       30.16F
TUCUMCARI      CLEAR     72  61  68 N7        30.16R
$$




USA.gov is the U.S. government's official web portal to all federal, state and local government web resources and services.